Details From UHMA - Ugolny
To UEEE - Yakutsk
Flight Number -
Tags Generated
Created
Modified
Stats Distance 1,268 nm / 2,349 km
Max Altitude 0 ft / 0 m
Waypoints 3
Social Downloads 0
Likes 0
Share VATSIM

Download

Looking for another format? Having issues loading an existing format? Contact us
Advertisement - Login to hide

Notes

Generated

Route

UHMA UTS UEEE

ID Type Via Altitude Latitude Longitude Leg Dist Tot Dist Heading (true) Name
O UHMA APT - 0 ft / 0 m 64.71979˚ 177.73219˚ - 0 nm - -
UTS VOR - 0 ft / 0 m 62.09167˚ 129.78319˚ 1267 nm 1267 nm 285° / 242° YAKUTSK VOR-DME
O UEEE APT - 0 ft / 0 m 62.08188˚ 129.75652˚ 0 nm 1268 nm 232° / 232° -

Altitude Profile

Advertisement - Login to hide

Weather


0- 5 10 15 20 25 30 35+ Temperature / ° C

Clouds and Precipitation
Forecast for 2018-05-22 18:00 UTC. Updated 5 hours ago

Ground ~20,000 ft ~40,000 ft Winds

UHMA

Details ICAO UHMA (DYR)
Name UGOLNY
Region Russia
Timezone Asia/Anadyr (UTC+12.0)
Stats Elevation 194 ft / 59 m (AMSL)
Location 64.734950° 177.741483°
Runways 1
Magnetic Variation 1.341° E

METAR

UHMA 222130Z 01004MPS 9999 SCT018 M01/M02 Q1007 R88/60D NOSIG RMK END R01/01002MPS QFE752/1002

Decode

TAF

TAF UHMA 221948Z 2221/2321 06003MPS 9999 SCT010 SCT060 TEMPO 2221/2312 36005MPS 1000 SHSNRA BR BKN008 BKN020CB BECMG 2312/2313 01005MPS TEMPO 2313/2321 06003MPS 2000 BR BKN010

Decode

Departure Runways

ID Width Length Bearing (true) Bearing (mag) Surface Threshold Offset Overrun Length
01 197 ft / 60 m 11,439 ft / 3,487 m 14.65° 13.31° Concrete 0 ft / 0 m 240 ft / 73 m
19 197 ft / 60 m 11,439 ft / 3,487 m 194.66° 193.32° Concrete 0 ft / 0 m 240 ft / 73 m

UEEE

Details ICAO UEEE (YKS)
Name Yakutsk
Region Russia
Timezone Asia/Yakutsk (UTC+9.0)
Stats Elevation 325 ft / 99 m (AMSL)
Location 62.093249° 129.770678°
Runways 2
Magnetic Variation 15.677° W

METAR

UEEE 222130Z 08004MPS 9999 SCT050CB 11/M02 Q0997 R23L/09//60 NOSIG RMK QFE739

Decode

TAF

TAF UEEE 222000Z 2221/2403 08006G12MPS 9999 BKN020CB OVC080 TEMPO 2221/2306 -SHRA SCT007 BKN020CB OVC080

Decode

Destination Runways

ID Width Length Bearing (true) Bearing (mag) Surface Threshold Offset Overrun Length
05L 161 ft / 49 m 8,171 ft / 2,491 m 29.51° 45.19° Concrete 0 ft / 0 m 154 ft / 47 m
05R 197 ft / 60 m 11,120 ft / 3,389 m 36.88° 52.56° Asphalt 0 ft / 0 m 226 ft / 69 m
23L 197 ft / 60 m 11,120 ft / 3,389 m 216.92° 232.60° Asphalt 0 ft / 0 m 226 ft / 69 m
23R 161 ft / 49 m 8,171 ft / 2,491 m 209.53° 225.21° Concrete 3,399 ft / 1,036 m 164 ft / 50 m

Approach Navaids

Runway Type Ident Frequency Range Bearing (true) Bearing (mag) Slope Elevation
23L Localiser IMF 111.70 MHz 18 nm / 33 km 216.60° 232.28° - 325 ft / 99 m (AMSL)
23L Glidescope IMF 111.70 MHz 10 nm / 19 km 216.90° 232.58° 3.00° 325 ft / 99 m (AMSL)

Popular Alternatives